Date String (YYYY-MM-DD hh:mm:ss) UTC,Instrument flags,absolute air pressure of the measurement (hPa),sample flow rate (lpm),inlet stack bypass flow (lpm),air temperature of the measurement (°C),ambient temperature measured by the external sensor (°C),aerosol sample conditioner tube jacket temperature (°C),OPC LED temperature (°C),internal box temperature (°C),relative humidity of the measurement (%),span deviation,mass concentration of particles derived from Lorenz-Mie calculation of OPC scattering (μg/m³),mass concentration of particles derived from Lorenz-Mie calculation of OPC scattering (μg/m³),mass concentration of particles derived from Lorenz-Mie calculation of OPC scattering (μg/m³)
DateTimeUTC,F1_M11,P_M11,Q1_M11,Q2_M11,T1_M11,T2_M11,T3_M11,T4_M11,T5_M11,U1_M11,ZSPAN_M11,X0_M11,X2_M11,X1_M11
2024-05-29 08:00:00,SystemResetWarning,0833.4,5.01,000.00,030.4,029.6,000.0,038.9,032.1,026.0,0002.8,0019.27,0006.67,0004.73
2024-05-29 08:01:00,SystemResetWarning,0833.4,4.99,000.00,030.4,029.6,000.0,038.9,032.1,026.0,0002.8,0019.89,0006.72,0004.74
2024-05-29 08:02:00,SystemResetWarning,0833.4,4.99,000.00,030.4,029.6,000.0,038.9,032.1,025.9,0002.4,0018.90,0006.79,0004.73
2024-05-29 08:03:00,SystemResetWarning,0833.4,5.00,000.00,030.4,029.6,000.0,038.9,032.1,025.9,0002.7,0018.37,0006.85,0004.72
2024-05-29 08:04:00,SystemResetWarning,0833.3,5.00,000.00,030.4,029.6,000.0,038.9,032.1,025.9,0003.1,0017.87,0006.85,0004.71
2024-05-29 08:05:00,SystemResetWarning,0833.2,4.99,000.00,030.4,029.6,000.0,038.9,032.1,025.8,0003.0,0017.74,0006.87,0004.70
2024-05-29 08:06:00,SystemResetWarning,0833.2,5.00,000.00,030.4,029.6,000.0,038.9,032.1,025.6,0003.0,0017.96,0006.89,0004.66
2024-05-29 08:07:00,SystemResetWarning,0833.2,5.00,000.00,030.4,029.6,000.0,038.9,032.1,025.4,0003.1,0017.97,0006.83,0004.63
2024-05-29 08:08:00,SystemResetWarning,0833.2,5.00,000.00,030.4,029.6,000.0,038.8,032.1,025.6,0002.9,0018.32,0006.85,0004.62
2024-05-29 08:09:00,SystemResetWarning,0833.2,5.00,000.00,030.4,029.6,000.0,038.8,032.1,025.6,0002.5,0018.49,0006.84,0004.61
2024-05-29 08:10:00,SystemResetWarning,0833.2,5.00,000.00,030.4,029.5,000.0,038.8,032.1,025.1,0002.1,0018.57,0006.85,0004.60
2024-05-29 08:11:00,SystemResetWarning,0833.2,5.00,000.00,030.4,029.5,000.0,038.8,032.1,024.8,0002.4,0017.99,0006.72,0004.56
2024-05-29 08:12:00,SystemResetWarning,0833.2,5.00,000.00,030.4,029.5,000.0,038.8,032.1,024.8,0002.7,0016.83,0006.54,0004.52
2024-05-29 08:13:00,SystemResetWarning,0833.2,5.00,000.00,030.4,029.5,000.0,038.8,032.1,024.9,0003.1,0016.67,0006.50,0004.49
2024-05-29 08:14:00,SystemResetWarning,0833.2,5.00,000.00,030.4,029.5,000.0,038.8,032.1,024.8,0002.6,0016.62,0006.38,0004.47
2024-05-29 08:15:00,SystemResetWarning,0833.2,5.01,000.00,030.3,029.5,000.0,038.8,032.1,024.8,0002.8,0016.43,0006.30,0004.43
2024-05-29 08:16:00,SystemResetWarning,0833.1,5.00,000.00,030.4,029.5,000.0,038.8,032.1,024.8,0002.8,0016.07,0006.24,0004.40
2024-05-29 08:17:00,SystemResetWarning,0833.1,5.01,000.00,030.3,029.5,000.0,038.8,032.1,024.5,0002.7,0015.83,0006.22,0004.39
2024-05-29 08:18:00,SystemResetWarning,0833.1,4.99,000.00,030.3,029.5,000.0,038.8,032.0,024.4,0002.8,0015.79,0006.19,0004.36
2024-05-29 08:19:00,SystemResetWarning,0833.0,4.99,000.00,030.3,029.5,000.0,038.8,032.0,024.4,0002.8,0015.67,0006.11,0004.33
2024-05-29 08:20:00,SystemResetWarning,0833.1,5.00,000.00,030.3,029.5,000.0,038.8,032.0,024.4,0003.0,0015.67,0006.07,0004.28
2024-05-29 08:21:00,SystemResetWarning,0833.0,5.01,000.00,030.3,029.5,000.0,038.8,032.1,024.2,0001.4,0015.20,0005.97,0004.25
2024-05-29 08:22:00,SystemResetWarning,0833.1,5.01,000.00,030.3,029.4,000.0,038.8,032.0,024.2,0002.3,0014.73,0006.01,0004.26
2024-05-29 08:23:00,SystemResetWarning,0833.1,5.00,000.00,030.3,029.4,000.0,038.8,032.0,024.1,0002.5,0016.18,0005.99,0004.26
2024-05-29 08:24:00,SystemResetWarning,0833.0,4.99,000.00,030.3,029.4,000.0,038.8,032.0,024.1,0002.1,0016.20,0005.94,0004.26
2024-05-29 08:25:00,SystemResetWarning,0833.0,4.98,000.00,030.3,029.4,000.0,038.8,032.0,024.1,0002.0,0016.01,0005.93,0004.24
2024-05-29 08:26:00,SystemResetWarning,0833.0,5.00,000.00,030.3,029.4,000.0,038.8,032.0,024.1,0002.1,0016.51,0005.94,0004.24
2024-05-29 08:27:00,SystemResetWarning,0832.9,5.01,000.00,030.3,029.4,000.0,038.8,032.0,024.0,0002.0,0016.78,0005.92,0004.23
2024-05-29 08:28:00,SystemResetWarning,0832.9,5.01,000.00,030.2,029.4,000.0,038.8,032.0,023.9,0002.5,0016.87,0005.87,0004.22
2024-05-29 08:29:00,SystemResetWarning,0833.0,4.99,000.00,030.2,029.4,000.0,038.7,032.0,023.9,0002.5,0016.88,0005.87,0004.22
2024-05-29 08:30:00,SystemResetWarning,0833.0,4.99,000.00,030.2,029.4,000.0,038.7,032.0,023.9,0002.5,0016.51,0005.88,0004.23
2024-05-29 08:31:00,SystemResetWarning,0833.0,5.00,000.00,030.2,029.4,000.0,038.7,032.0,023.8,0002.5,0016.26,0005.85,0004.23
2024-05-29 08:32:00,SystemResetWarning,0833.3,4.99,000.00,030.2,029.4,000.0,038.7,032.0,023.7,0002.9,0016.16,0005.85,0004.23
2024-05-29 08:33:00,SystemResetWarning,0833.2,5.00,000.00,030.2,029.4,000.0,038.7,032.0,023.5,0003.2,0016.20,0005.79,0004.20
2024-05-29 08:34:00,SystemResetWarning,0832.9,5.01,000.00,030.2,029.4,000.0,038.7,032.0,023.5,0003.3,0015.49,0005.81,0004.18
2024-05-29 08:35:00,SystemResetWarning,0832.9,5.01,000.00,030.2,029.3,000.0,038.7,031.9,023.5,0003.8,0014.80,0005.80,0004.17
2024-05-29 08:36:00,SystemResetWarning,0832.8,4.99,000.00,030.2,029.3,000.0,038.7,031.9,023.6,0002.8,0015.50,0005.81,0004.17
2024-05-29 08:37:00,SystemResetWarning,0832.8,4.99,000.00,030.2,029.3,000.0,038.7,031.9,023.7,0000.0,0015.24,0005.74,0004.16
2024-05-29 08:38:00,SystemResetWarning,0832.8,5.01,000.00,030.2,029.3,000.0,038.7,031.9,023.7,0000.0,0014.70,0005.68,0004.15
2024-05-29 08:39:00,SystemResetWarning,0832.8,5.01,000.00,030.2,029.3,000.0,038.7,031.9,024.2,0000.0,0014.48,0005.64,0004.16
2024-05-29 08:40:00,SystemResetWarning,0832.7,5.00,000.00,030.2,029.3,000.0,038.7,032.0,024.4,0000.5,0014.31,0005.66,0004.19
2024-05-29 08:41:00,SystemResetWarning,0832.7,5.00,000.00,030.2,029.4,000.0,038.7,032.0,024.6,0000.7,0014.16,0005.67,0004.21
2024-05-29 08:42:00,SystemResetWarning,0832.7,5.00,000.00,030.2,029.4,000.0,038.7,032.0,024.6,0001.9,0014.11,0005.71,0004.23
2024-05-29 08:43:00,SystemResetWarning,0832.7,4.99,000.00,030.2,029.4,000.0,038.7,032.0,024.6,0000.1,0014.35,0005.78,0004.25
2024-05-29 08:44:00,SystemResetWarning,0832.7,5.00,000.00,030.2,029.4,000.0,038.7,032.0,024.5,0001.2,0014.59,0005.86,0004.28
2024-05-29 08:45:00,SystemResetWarning,0832.7,5.00,000.00,030.2,029.4,000.0,038.7,032.0,024.5,0001.6,0014.16,0005.91,0004.30
2024-05-29 08:46:00,SystemResetWarning,0832.7,4.99,000.00,030.2,029.4,000.0,038.7,032.0,024.4,0001.7,0014.33,0005.97,0004.34
2024-05-29 08:47:00,SystemResetWarning,0832.7,5.00,000.00,030.2,029.4,000.0,038.7,032.0,024.1,0002.1,0014.17,0005.99,0004.36
2024-05-29 08:48:00,SystemResetWarning,0832.7,5.00,000.00,030.2,029.4,000.0,038.7,032.0,023.6,0002.0,0015.24,0006.04,0004.38
2024-05-29 08:49:00,SystemResetWarning,0832.8,5.01,000.00,030.2,029.4,000.0,038.7,032.0,023.3,0002.6,0015.48,0006.12,0004.40
2024-05-29 08:50:00,SystemResetWarning,0832.7,5.00,000.00,030.2,029.4,000.0,038.7,032.0,023.3,0002.7,0015.53,0006.16,0004.38
2024-05-29 08:51:00,SystemResetWarning,0832.7,5.01,000.00,030.2,029.4,000.0,038.7,032.0,023.2,0002.4,0015.44,0006.14,0004.34
2024-05-29 08:52:00,SystemResetWarning,0832.7,4.99,000.00,030.2,029.4,000.0,038.7,032.0,023.2,0002.2,0016.26,0006.10,0004.32
2024-05-29 08:53:00,SystemResetWarning,0832.7,4.99,000.00,030.2,029.4,000.0,038.7,032.0,023.1,0002.6,0016.18,0006.03,0004.29
2024-05-29 08:54:00,SystemResetWarning,0832.7,5.00,000.00,030.2,029.4,000.0,038.7,032.0,023.2,0003.0,0016.91,0005.93,0004.24
2024-05-29 08:55:00,SystemResetWarning,0832.7,5.00,000.00,030.2,029.4,000.0,038.7,032.0,023.3,0003.0,0017.66,0005.82,0004.21
2024-05-29 08:56:00,SystemResetWarning,0832.7,5.00,000.00,030.2,029.4,000.0,038.7,032.0,023.3,0000.7,0017.65,0005.80,0004.18
2024-05-29 08:57:00,SystemResetWarning,0832.6,5.00,000.00,030.2,029.4,000.0,038.7,032.0,023.3,0002.5,0017.54,0005.74,0004.14
2024-05-29 08:58:00,SystemResetWarning,0832.6,5.00,000.00,030.2,029.4,000.0,038.7,032.0,023.1,0000.9,0017.11,0005.68,0004.11
2024-05-29 08:59:00,SystemResetWarning,0832.6,5.00,000.00,030.2,029.4,000.0,038.7,032.0,023.2,0000.0,0016.66,0005.65,0004.10
